Weather History for Eureka, NV

Change the Weather History Date:

Tuesday, January 22, 2013

  Actual Average Record
Temperature  
Mean Temperature 19 °F 24 °F  
Max Temperature 40 °F 38 °F 61 °F (1994)
Min Temperature -3 °F 11 °F -13 °F (2004)
Degree Days  
Heating Degree Days 46 41  
Month to date heating degree days 1175 917  
Since 1 July heating degree days 3663 3923  
Cooling Degree Days 0 0  
Month to date cooling degree days 0 0  
Year to date cooling degree days 0 0  
Moisture  
Dew Point 6 °F    
Average Humidity 63    
Maximum Humidity 88    
Minimum Humidity 37    
Precipitation  
Precipitation 0.00 in 0.02 in 0.17 in (2009)
Month to date precipitation 0.19 0.52  
Year to date precipitation 0.19 0.52  
Sea Level Pressure  
Sea Level Pressure 30.43 in    
Wind  
Wind Speed 3 mph (WSW)    
Max Wind Speed 12 mph    
Max Gust Speed 14 mph    
T = Trace of Precipitation, MM = Missing Value Source: NWS Daily Summary

Daily Weather History Graph

Daily Weather History Graph

Search for Another Location

Airport:

Trip Planner

Search our weather history database for the weather conditions in past years. The results will help you decide how hot, cold, wet, or windy it might be!

Date:

Astronomy

Jan. 22, 2013 Rise Set
Actual Time 6:59 AM PST 4:52 PM PST
Civil Twilight 6:30 AM PST 5:21 PM PST
Nautical Twilight 5:57 AM PST 5:54 PM PST
Astronomical Twilight 5:25 AM PST 6:26 PM PST
Moon 1:19 PM PST (1/22) 3:24 AM PST (1/22)
Length of Visible Light 10h 51m
Length of Day
9h 53m
Waxing Gibbous, 83% of the Moon is Illuminated
Jan 22
Waxing Gibbous
Jan 26
Full
Feb 3
Last Quarter
Feb 9
New
Feb 17
First Quarter

Hourly Weather History & Observations

Time (PST) Temp. Windchill Dew Point Humidity Pressure Visibility Wind Dir Wind Speed Gust Speed Precip Events Conditions
12:53 AM 3.9 °F -5.3 °F -0.0 °F 84% 30.48 in - SW 4.6 mph - N/A   Unknown
1:53 AM 3.9 °F -6.9 °F -0.9 °F 80% 30.47 in - SW 5.8 mph - N/A   Unknown
2:53 AM 7.0 °F -6.6 °F 3.0 °F 84% 30.44 in - SSW 9.2 mph - N/A   Unknown
3:53 AM 7.0 °F -6.6 °F 1.9 °F 80% 30.44 in - SSW 9.2 mph - N/A   Unknown
4:53 AM 3.9 °F -9.4 °F -0.0 °F 84% 30.49 in - SW 8.1 mph - N/A   Unknown
5:53 AM 3.0 °F -6.4 °F -0.9 °F 84% 30.54 in - SSW 4.6 mph - N/A   Unknown
6:53 AM -2.0 °F - -5.1 °F 87% 30.55 in - Calm Calm - N/A   Unknown
7:53 AM 1.9 °F - -2.9 °F 80% 30.54 in - Calm Calm - N/A   Unknown
8:53 AM 12.0 °F 5.9 °F 6.1 °F 77% 30.53 in - WSW 3.5 mph - N/A   Unknown
9:53 AM 23.0 °F 18.4 °F 10.9 °F 60% 30.50 in - WSW 3.5 mph - N/A   Unknown
10:53 AM 30.0 °F - 12.9 °F 49% 30.41 in - Calm Calm - N/A   Unknown
11:53 AM 32.0 °F - 15.1 °F 50% 30.38 in - Calm Calm - N/A   Unknown
12:53 PM 34.0 °F - 17.1 °F 50% 30.36 in - Calm Calm - N/A   Unknown
1:53 PM 37.9 °F - 17.1 °F 43% 30.33 in - Calm Calm - N/A   Unknown
2:53 PM 39.9 °F - 16.0 °F 38% 30.29 in - Calm Calm - N/A   Unknown
3:53 PM 36.0 °F - 18.0 °F 48% 30.30 in - Calm Calm - N/A   Unknown
4:53 PM 26.1 °F - 15.1 °F 63% 30.38 in - Calm Calm - N/A   Unknown
5:53 PM 14.0 °F 8.2 °F 8.1 °F 77% 30.45 in - West 3.5 mph - N/A   Unknown
6:53 PM 12.0 °F - 6.1 °F 77% 30.48 in - Calm Calm - N/A   Unknown
7:53 PM 8.1 °F - 3.0 °F 80% 30.46 in - Calm Calm - N/A   Unknown
8:53 PM 7.0 °F 0.1 °F 3.0 °F 84% 30.43 in - West 3.5 mph - N/A   Unknown
9:53 PM 7.0 °F -3.3 °F 3.0 °F 84% 30.40 in - West 5.8 mph - N/A   Unknown
10:53 PM 7.0 °F - 3.0 °F 84% 30.36 in - Calm Calm - N/A   Unknown
11:53 PM 3.9 °F -6.9 °F -0.0 °F 84% 30.37 in - WNW 5.8 mph - N/A   Unknown